History for Ft Lauderdale, FL

Saturday, January 14, 2017 — View Current Conditions

Jump to Data:

Date:
Airport Code:
Recently Viewed Airport Codes: KFLL
Daily Summary
  Actual Average Record
Temperature
Mean Temperature 74°F 69°F  
Max Temperature 77°F 76°F 88°F (1979)
Min Temperature 71°F 61°F 34°F (1956)
Degree Days
Heating Degree Days 0 2  
Month to date heating degree days 11 28  
Since 1 July heating degree days 13 60  
Cooling Degree Days 9 5  
Month to date cooling degree days 105 79  
Year to date cooling degree days 105 79  
Growing Degree Days 24 (Base 50)    
Moisture
Dew Point 61°F    
Average Humidity 63    
Maximum Humidity 69    
Minimum Humidity 57    
Precipitation
Precipitation 0.01 in 0.08 in 5.82 in (1997)
Month to date precipitation 0.64 1.15  
Year to date precipitation 0.64 1.15  
Snow
Snow 0.00 in in in ()
Month to date snowfall 0.0  
Since 1 July snowfall 0.0  
Snow Depth 0.00 in    
Sea Level Pressure
Sea Level Pressure 30.30 in    
Wind
Wind Speed 15 mph (East)    
Max Wind Speed 22 mph    
Max Gust Speed 29 mph    
Visibility 10 miles    
Events Rain    
T = Trace of Precipitation, MM = Missing Value Source: NWS Daily Summary

Show full METARS

(help) - Comma Delimited File

Hourly Observations

Time(EST) Temperature Dew Point Humidity Sea Level Pressure Visibility Wind Direction Wind Speed Gust Speed Precipitation Events Conditions
12:53 AM 73.0°F 62.1°F 68% 30.32 in 10.0 miles East 10.4 mph 24.2 mph 0.00 in   Mostly Cloudy
1:53 AM 73.0°F 61.0°F 66% 30.32 in 10.0 miles ENE 18.4 mph - N/A   Overcast
2:53 AM 72.0°F 61.0°F 68% 30.31 in 10.0 miles ENE 11.5 mph 23.0 mph N/A   Mostly Cloudy
3:53 AM 73.0°F 60.1°F 64% 30.30 in 10.0 miles East 16.1 mph - N/A   Mostly Cloudy
4:53 AM 73.0°F 57.0°F 57% 30.31 in 10.0 miles East 19.6 mph 24.2 mph N/A   Overcast
5:53 AM 72.0°F 60.1°F 66% 30.30 in 10.0 miles ENE 12.7 mph - 0.00 in   Mostly Cloudy
6:53 AM 72.0°F 60.1°F 66% 30.31 in 10.0 miles ENE 12.7 mph - N/A   Mostly Cloudy
7:53 AM 72.0°F 60.1°F 66% 30.32 in 10.0 miles East 15.0 mph 21.9 mph 0.00 in   Partly Cloudy
8:53 AM 73.0°F 62.1°F 68% 30.34 in 10.0 miles East 19.6 mph 25.3 mph 0.00 in Rain Light Rain
9:53 AM 75.0°F 61.0°F 62% 30.36 in 10.0 miles East 15.0 mph - 0.00 in   Mostly Cloudy
10:53 AM 75.9°F 64.0°F 67% 30.35 in 10.0 miles NE 15.0 mph 23.0 mph N/A   Mostly Cloudy
11:53 AM 73.0°F 64.0°F 73% 30.33 in 10.0 miles SE 15.0 mph - 0.00 in Rain Light Rain
12:53 PM 73.9°F 62.1°F 66% 30.30 in 10.0 miles ESE 19.6 mph 26.5 mph 0.01 in   Overcast
1:53 PM 75.0°F 62.1°F 64% 30.28 in 10.0 miles East 16.1 mph - 0.00 in   Overcast
2:53 PM 75.9°F 59.0°F 56% 30.27 in 10.0 miles East 17.3 mph - N/A   Overcast
3:53 PM 75.9°F 60.1°F 58% 30.27 in 10.0 miles East 16.1 mph - N/A   Mostly Cloudy
4:53 PM 75.0°F 63.0°F 66% 30.26 in 10.0 miles ENE 12.7 mph 19.6 mph N/A   Mostly Cloudy
5:53 PM 73.9°F 63.0°F 68% 30.27 in 10.0 miles East 13.8 mph - N/A   Mostly Cloudy
6:53 PM 73.0°F 63.0°F 71% 30.27 in 10.0 miles East 15.0 mph - 0.00 in Rain Light Rain
7:53 PM 73.0°F 62.1°F 68% 30.28 in 10.0 miles East 13.8 mph - 0.00 in   Overcast
8:53 PM 73.9°F 61.0°F 64% 30.29 in 10.0 miles East 15.0 mph - N/A   Mostly Cloudy
9:53 PM 73.0°F 63.0°F 71% 30.29 in 10.0 miles ENE 10.4 mph - N/A   Mostly Cloudy
10:53 PM 73.9°F 62.1°F 66% 30.29 in 10.0 miles ENE 12.7 mph - N/A   Overcast
11:53 PM 73.9°F 61.0°F 64% 30.27 in 10.0 miles East 10.4 mph - N/A   Mostly Cloudy